W9SDA Weather Reports


time (UTC)temp
F
wind
direction
speed
knots
gust
knots
rain 1hr
in
rain 24hr
in
rain mn
in
humidity
%
barometer
mb
20260906131607 70 123 0.9 5.2 0.00 0.00 0.00 94 1017.3
20260906130107 70 225 0.0 4.3 0.00 0.00 0.00 95 1017.1
20260906124602 70 117 1.7 5.2 0.00 0.00 0.00 94 1016.9
20260906123059 70 192 1.7 5.2 0.00 0.00 0.00 94 1016.9
20260906121605 70 115 1.7 3.5 0.00 0.00 0.00 94 1016.9
20260906120107 70 127 0.0 5.2 0.00 0.00 0.00 94 1016.7
20260906114604 70 0 0.0 4.3 0.00 0.00 0.00 94 1016.6
20260906113101 70 0 0.0 2.6 0.00 0.00 0.00 94 1016.2
20260906111559 70 115 0.0 1.7 0.00 0.00 0.00 94 1016.0
20260906104605 70 0 0.0 1.7 0.00 0.00 0.00 93 1015.6
20260906103102 70 0 0.0 1.7 0.00 0.00 0.00 93 1015.6
20260906101600 71 120 0.0 1.7 0.00 0.00 0.00 93 1015.5
20260906100105 71 0 0.0 2.6 0.00 0.00 0.00 93 1015.5
20260906094611 71 0 0.0 2.6 0.00 0.00 0.00 92 1015.3
20260906093132 72 0 0.0 2.6 0.00 0.00 0.00 92 1015.1
20260906091611 72 0 0.0 1.7 0.00 0.00 0.00 92 1015.1
20260906084701 73 0 0.0 2.6 0.00 0.00 0.00 91 1015.1
20260906083052 74 119 0.0 2.6 0.00 0.00 0.00 91 1015.1
20260906081550 74 0 0.0 1.7 0.00 0.00 0.00 89 1015.0
20260906074559 74 269 0.9 5.2 0.00 0.00 0.00 90 1014.9
20260906073053 75 0 0.0 4.3 0.00 0.00 0.00 90 1014.9
20260906071552 75 0 0.9 2.6 0.00 0.00 0.00 91 1015.1
20260906070059 76 0 0.0 2.6 0.00 0.00 0.00 91 1015.0
20260906064551 76 0 0.0 1.7 0.00 0.00 0.00 90 1015.0
20260906063101 77 0 0.0 1.7 0.00 0.00 0.00 90 1015.0
20260906061605 78 0 0.0 0.0 0.00 0.00 0.00 89 1014.9
20260906060130 78 0 0.0 1.7 0.00 0.00 0.00 89 1015.0
20260906054610 78 0 0.0 5.2 0.00 0.00 0.00 89 1014.9
20260906053057 79 126 0.9 4.3 0.00 0.00 0.00 89 1014.9
20260906051602 79 0 0.0 6.1 0.00 0.00 0.00 90 1014.8
20260906050108 78 138 1.7 6.1 0.00 0.00 0.00 92 1014.7
20260906044604 77 117 0.0 0.9 0.00 0.00 0.00 92 1014.6
20260906043056 77 0 0.0 0.0 0.00 0.00 0.00 92 1014.4
20260906041600 77 0 0.0 0.0 0.00 0.00 0.00 92 1014.3
20260906040107 77 0 0.0 0.0 0.00 0.00 0.00 92 1014.0
20260906034603 77 0 0.0 0.0 0.00 0.00 0.00 91 1014.0
20260906033056 77 0 0.0 0.0 0.00 0.00 0.00 91 1013.9
20260906031602 78 0 0.0 0.0 0.00 0.00 0.00 91 1013.8
20260906030104 78 0 0.0 0.0 0.00 0.00 0.00 90 1013.8
20260906024600 78 0 0.0 0.0 0.00 0.00 0.00 90 1013.6
20260906023102 78 0 0.0 0.0 0.00 0.00 0.00 90 1013.4
20260906021601 78 0 0.0 0.0 0.00 0.00 0.00 89 1013.3
20260906020058 79 0 0.0 1.7 0.00 0.00 0.00 89 1013.0
20260906014633 79 0 0.0 0.0 0.00 0.00 0.00 88 1012.8
20260906013102 79 0 0.0 0.0 0.00 0.00 0.00 88 1012.8
20260906011605 80 0 0.0 0.0 0.00 0.00 0.00 87 1012.7
20260906010058 81 0 0.0 0.0 0.00 0.00 0.00 84 1012.5
20260906004606 81 0 0.0 0.0 0.00 0.00 0.00 81 1012.4
20260906003110 82 0 0.0 0.0 0.00 0.00 0.00 80 1012.4
20260906001603 83 0 0.0 0.0 0.00 0.00 0.00 80 1012.4
20260906000058 83 0 0.0 0.0 0.00 0.00 0.00 79 1012.5
20260905234558 83 0 0.0 2.6 0.00 0.00 0.00 78 1012.4
20260905233103 84 0 0.0 2.6 0.00 0.00 0.00 73 1012.4
20260905231602 84 0 0.0 3.5 0.00 0.00 0.00 71 1012.3
20260905230108 85 186 1.7 4.3 0.00 0.00 0.00 66 1012.6
20260905224614 89 323 1.7 7.0 0.00 0.00 0.00 65 1012.9
20260905223101 92 105 1.7 7.0 0.00 0.00 0.00 56 1012.5
20260905221616 96 45 0.9 4.3 0.00 0.00 0.00 51 1012.5
20260905220056 98 218 0.0 2.6 0.00 0.00 0.00 49 1012.5
20260905214603 99 89 0.9 7.8 0.00 0.00 0.00 49 1012.1
20260905213106 99 299 0.9 10.4 0.00 0.00 0.00 51 1012.0
20260905211603 99 346 0.0 4.3 0.00 0.00 0.00 48 1012.0
20260905210100 99 31 0.9 7.0 0.00 0.00 0.00 45 1012.4
20260905204603 98 351 0.9 4.3 0.00 0.00 0.00 49 1012.3
20260905203105 97 352 0.0 2.6 0.00 0.00 0.00 51 1012.5
20260905201623 99 349 2.6 8.7 0.00 0.00 0.00 48 1012.5
20260905200103 98 66 0.9 6.1 0.00 0.00 0.00 51 1012.8
20260905194556 98 19 1.7 4.3 0.00 0.00 0.00 48 1013.0
20260905193104 98 360 0.9 4.3 0.00 0.00 0.00 51 1013.0
20260905191559 99 243 0.9 7.8 0.00 0.00 0.00 44 1013.2
20260905184559 100 341 0.0 3.5 0.00 0.00 0.00 49 1013.4
20260905183052 99 143 1.7 5.2 0.00 0.00 0.00 49 1013.6
20260905181612 98 189 1.7 7.8 0.00 0.00 0.00 52 1013.9
20260905174602 96 5 1.7 6.1 0.00 0.00 0.00 54 1013.9
20260905173104 96 352 0.9 6.1 0.00 0.00 0.00 59 1014.0
20260905171602 94 97 0.9 5.2 0.00 0.00 0.00 61 1014.1
20260905170100 94 350 1.7 7.8 0.00 0.00 0.00 57 1014.4
20260905164554 93 35 2.6 7.8 0.00 0.00 0.00 61 1014.6
20260905163101 92 355 1.7 4.3 0.00 0.00 0.00 63 1014.8
20260905161604 91 5 1.7 7.0 0.00 0.00 0.00 63 1014.9
20260905160055 91 337 1.7 5.2 0.00 0.00 0.00 65 1015.0
20260905154619 90 5 2.6 6.1 0.00 0.00 0.00 65 1015.1
20260905153059 89 355 2.6 6.1 0.00 0.00 0.00 67 1015.1
20260905151603 88 23 0.9 7.0 0.00 0.00 0.00 68 1015.0
20260905150055 87 355 2.6 5.2 0.00 0.00 0.00 69 1015.0
20260905144600 86 32 1.7 7.0 0.00 0.00 0.00 72 1014.8
20260905143100 85 333 2.6 5.2 0.00 0.00 0.00 73 1014.8
20260905141600 85 5 1.7 4.3 0.00 0.00 0.00 74 1014.9
20260905140106 84 15 1.7 3.5 0.00 0.00 0.00 76 1014.9
20260905134601 82 15 1.7 3.5 0.00 0.00 0.00 81 1014.9
20260905133058 80 0 0.0 0.9 0.00 0.00 0.00 90 1014.8